Back to catalog

GJZ 04

AliveMilitaryLEO
NORAD 62293·PAYLOAD·🇨🇳 China

Launched Dec 12, 2024 from Jiuquan Satellite Launch Center

Loading…

Next Passes (next 24 hours)

TLE

FreshSource: Space-Track

Epoch: Sep 14, 2026, 13:23 UTC

1 62293U 24238D   26257.55772201 -.00000041  00000-0  81104-4 0  9996
2 62293  59.9159   0.5461 0020928  66.4582 293.8622 13.75207751 88208

Track GJZ 04 in real time with AllMySat

Download on the App Store